Find Starlink 31419

NORAD ID: 59368 Int'l Des: 2024-060 Owner: SPXS Country: US Constellation: starlink operational
LEOCIRCULAR

Live-Position

3D-Globus wird geladen...

Über Starlink 31419

Beschreibung wird geladen...

Nächste Überflüge

Passes for default location (London). Set your location on the main map for personalized predictions.

Höhenverlauf

Loading altitude history...

Zweizeiliger Elementsatz

1 59368U 24060W 26126.81600673 -.00001296 00000-0 -37561-4 0 9997
2 59368 43.0026 291.4886 0001876 272.8173 87.2464 15.27575550118955
Epoch: 6. Mai 2026 • Age: 10 hours

Aktueller Status

Höhe 492.4 km
Geschwindigkeit 7.62 km/s
Subsatellitenpunkt -35.84°S, 156.3°W
Startdatum 31. März 2024
Alter 2 years
Typ internet

Technische Details

Klassifizierung Payload
Masse 730.00 kg
Trockenmasse 700.00 kg
Gesamtmasse 730.00 kg
Länge 0.30 m
Durchmesser 4.10 m
Spannweite 29.00 m
Form Box + pan
Hersteller SPXS
Bus-Typ Starlink V2M
Phasenstatus In Orbit
Besitzer/Staat SPXS/US

Most Searched